Location: Unspecified
(49.2170°N, 0.0000°E)
Time: 15:09:41
(UTC+00:00)

SR - Pass Details

Date: 21 January 2021
Orbit: 573 x 882 km, 66.7° (Epoch: 05 March)

Event Time Altitude Azimuth Distance (km) Brightness Sun altitude
Exits shadow 04:33:52 15° 156° (SSE) 1,793 ? -30.7°
Maximum altitude 04:36:45 26° 110° (ESE) 1,383 ? -30.2°
Drops below altitude 10° 04:40:56 10° 55° (NE) 2,265 ? -29.6°
Sets 04:43:46 0° 43° (NE) 3,253 ? -29.1°
